[[{"header":{"parameterUnit":"m.s-1","parameterCategory":1,"la1":30.2991,"la2":30.254,"lo1":-89.0895,"lo2":-89.0444,"dy":0.0017,"dx":0.0017,"nx":28,"ny":28,"refTime":"2025-08-26T03:00:00:Z","depth":0,"parameterNumber":2,"parameterNumberName":"U-component_of_WINDS"},"data":[0,0,0,0,0,0,0,0,0,0,0,0,0,0,0,0,0,0,0,0,0,0,0,0,0,0,0,0,0,0,0,0,0,0,0,0,0,0,0,0,0,0,0,0,0,0,0,0,0,0,0,0,0,0,0,0,0,0,-3.3859,-3.3859,0,-3.39,-3.3901,-3.3901,-3.3788,-3.3785,-3.3781,-3.3778,-3.3821,-3.3826,-3.383,0,0,0,0,0,0,0,0,0,0,0,0,0,-3.3681,-3.3685,-3.3859,-3.3859,-3.386,-3.39,-3.3901,-3.3902,-3.3789,-3.3785,-3.378,-3.3776,-3.382,-3.3825,-3.383,0,0,0,0,0,0,0,0,0,0,0,0,0,-3.3744,-3.3686,-3.3859,-3.3809,-3.3804,-3.39,-3.3901,-3.3902,-3.379,-3.3785,-3.3779,-3.3774,-3.3818,-3.3825,-3.3831,-3.3977,0,0,-3.3851,-3.3854,0,0,0,0,0,0,0,0,-3.3741,-3.3751,-3.3815,-3.3812,-3.3808,-3.3834,-3.3854,-3.3927,-3.3791,-3.3796,-3.3778,-3.3772,-3.383,-3.3835,-3.3854,-3.3979,-3.3981,-3.3852,-3.3856,-3.3859,-3.3861,0,0,0,0,0,0,0,-3.3736,-3.3748,-3.3875,-3.3817,-3.3812,-3.3784,-3.3787,-3.3867,-3.3842,-3.3795,-3.3787,-3.3793,-3.3827,-3.3848,-3.3855,-3.3982,-3.3852,-3.3858,-3.3862,-3.3864,-3.4228,-3.4233,0,0,0,0,0,0,-3.3739,-3.3745,-3.3874,-3.3876,-3.3761,-3.3791,-3.3795,-3.3831,-3.384,-3.3837,-3.3797,-3.3788,-3.384,-3.3847,-3.3856,-3.4027,-3.3859,-3.3865,-3.3869,-3.4222,-3.4229,-3.4235,0,0,0,0,0,0,-3.3735,-3.3751,-3.3872,-3.3809,-3.3822,-3.38,-3.3841,-3.3834,-3.3856,-3.3843,-3.3837,-3.3825,-3.3836,-3.3846,-3.3948,-3.4027,-3.3868,-3.3874,-3.4215,-3.4224,-3.4232,-3.4372,0,0,0,0,0,0,-3.3731,-3.3751,-3.3806,-3.3811,-3.3826,-3.3964,-3.3846,-3.3839,-3.3868,-3.3855,-3.3867,-3.3863,-3.3832,-3.3938,-3.3954,-3.4033,-3.3879,-3.4208,-3.4219,-3.4229,-3.436,-3.4384,-3.4404,0,0,0,0,0,-3.3725,-3.3845,-3.381,-3.3826,-3.3895,-3.3969,-3.3978,-3.3939,-3.3875,-3.393,-3.3921,-3.3863,-3.4016,-3.395,-3.3967,-3.4049,-3.4203,-3.4216,-3.4228,-3.435,-3.4379,-3.4404,0,0,0,0,0,0,-3.3851,-3.3844,-3.3806,-3.3931,-3.3951,-3.395,-3.4019,-3.3972,-3.4012,-3.3998,-3.3949,-3.3953,-3.4063,-3.4066,-3.3992,-3.419,-3.4098,-3.4115,-3.4185,-3.4212,-3.4234,-3.4232,-3.3885,0,0,0,0,0,-3.3893,-3.3954,-3.3944,-3.4056,-3.4068,-3.4042,-3.4073,-3.4041,-3.4061,-3.4069,-3.4067,-3.4089,-3.4141,-3.4176,-3.4224,-3.4359,-3.436,-3.4424,-3.4446,-3.4465,-3.448,-3.4551,-3.4579,-3.4277,-3.4277,-3.4276,0,0,-3.3981,-3.3985,-3.4026,-3.4081,-3.4093,-3.4157,-3.405,-3.4122,-3.4169,-3.408,-3.4175,-3.4175,-3.4195,-3.4314,-3.4366,-3.4319,-3.4563,-3.4481,-3.4496,-3.4501,-3.4567,-3.4595,-3.4621,-3.4285,-3.4284,-3.4282,0,0,-3.4174,-3.4184,-3.4277,-3.4291,-3.431,-3.4292,-3.4314,-3.432,-3.4316,-3.4411,-3.4345,-3.4399,-3.4491,-3.4508,-3.4528,-3.4726,-3.4674,-3.4743,-3.4859,-3.4929,-3.4953,-3.4974,-3.5044,-3.507,-3.4758,-3.4758,-3.4758,0,-3.4282,-3.4375,-3.4331,-3.4407,-3.4433,-3.4354,-3.4448,-3.4463,-3.4498,-3.4517,-3.4464,-3.4577,-3.4585,-3.4706,-3.4754,-3.4773,-3.4797,-3.4742,-3.4953,-3.4973,-3.4992,-3.5059,-3.5085,-3.4766,-3.4765,-3.4765,-3.4764,0,-3.4505,-3.4571,-3.4644,-3.4678,-3.4712,-3.4797,-3.4765,-3.4804,-3.4769,-3.4757,-3.4853,-3.486,-3.4907,-3.4933,-3.49,-3.505,-3.502,-3.4961,-3.4867,-3.503,-3.5092,-3.5117,-3.4778,-3.4775,-3.4773,-3.4771,0,0,-3.4781,-3.4788,-3.4816,-3.483,-3.4845,-3.4895,-3.4975,-3.5021,-3.5055,-3.5081,-3.5147,-3.5226,-3.5171,-3.5194,-3.5162,-3.5223,-3.5378,-3.5156,-3.5156,-3.5197,-3.5543,-3.5587,-3.5617,-3.5343,-3.5348,-3.5352,-3.5541,0,-3.4971,-3.5109,-3.5071,-3.5209,-3.5269,-3.5194,-3.5264,-3.5281,-3.527,-3.5319,-3.5307,-3.5364,-3.5287,-3.53,-3.5357,-3.5348,-3.5447,-3.5333,-3.5404,-3.5407,-3.5402,-3.565,-3.5697,-3.5876,-3.5565,-3.5569,-3.5572,0,-3.5212,-3.5247,-3.5391,-3.5395,-3.5418,-3.5482,-3.552,-3.5567,-3.5584,-3.5572,-3.5598,-3.5553,-3.5631,-3.5537,-3.5644,-3.5567,-3.5594,-3.5593,-3.5599,-3.5605,-3.55,-3.5662,-3.5932,-3.5959,-3.5609,-3.5606,-3.5603,0,-3.5399,-3.5481,-3.5577,-3.5592,-3.5599,-3.5645,-3.565,-3.5661,-3.5691,-3.5724,-3.5742,-3.5784,-3.5807,-3.5841,-3.5808,-3.5742,-3.592,-3.5823,-3.5912,-3.5913,-3.5954,-3.5952,-3.6232,-3.5971,-3.597,-3.597,-3.5969,0,-3.5616,-3.5707,-3.5661,-3.5721,-3.582,-3.5775,-3.5874,-3.587,-3.5881,-3.5938,-3.5876,-3.5931,-3.5884,-3.5934,-3.5909,-3.6001,-3.6012,-3.6005,-3.5997,-3.6011,-3.6012,-3.6028,-3.6015,-3.5977,-3.5975,-3.5974,-3.5973,0,-3.5841,-3.5814,-3.5915,-3.5912,-3.5914,-3.5987,-3.5985,-3.6039,-3.6024,-3.6097,-3.6111,-3.6087,-3.6143,-3.6113,-3.6171,-3.6154,-3.6274,-3.6249,-3.6269,-3.6262,-3.6353,-3.6345,-3.6653,-3.6691,-3.6406,-3.6409,-3.6411,0,-3.5982,-3.605,-3.6054,-3.6088,-3.6097,-3.6152,-3.6181,-3.6139,-3.6172,-3.6195,-3.6247,-3.6297,-3.6335,-3.6428,-3.6416,-3.6459,-3.6435,-3.654,-3.6442,-3.6453,-3.6437,-3.6434,-3.644,-3.6561,-3.6564,-3.6567,-3.6569,0,-3.6234,-3.6217,-3.6261,-3.6302,-3.6338,-3.6367,-3.6392,-3.6423,-3.638,-3.642,-3.6476,-3.6506,-3.6564,-3.6615,-3.6653,-3.6657,-3.6607,-3.66,-3.6623,-3.6638,-3.6646,-3.6643,-3.6323,-3.6593,-3.6591,-3.6589,-3.6588,-3.6587,-3.6421,-3.6478,-3.649,-3.6541,-3.6554,-3.6578,-3.6629,-3.6619,-3.6665,-3.6709,-3.6681,-3.6747,-3.676,-3.6805,-3.6816,-3.6867,-3.6825,-3.6858,-3.6867,-3.6876,-3.6888,-3.6638,-3.6874,-3.6873,-3.6872,-3.6871,-3.6871,0,-3.667,-3.6673,-3.6721,-3.6756,-3.6797,-3.6744,-3.6768,-3.6805,-3.6864,-3.688,-3.6919,-3.6983,-3.7031,-3.7022,-3.7066,-3.7108,-3.7086,-3.7121,-3.7118,-3.712,-3.6923,-3.6899,-3.7139,-3.7138,-3.7138,-3.7138,-3.7138,-3.7138,-3.6804,-3.6897,-3.6881,-3.698,-3.6982,-3.7046,-3.7064,-3.7085,-3.7098,-3.7172,-3.7212,-3.7205,-3.7211,-3.7255,-3.7297,-3.7292,-3.7311,-3.7356,-3.7343,-3.716,-3.7134,-3.7108,-3.7085,-3.736,-3.736,-3.7535,-3.7537,-3.7538]},{"header":{"parameterUnit":"m.s-1","parameterCategory":1,"la1":30.2991,"la2":30.254,"lo1":-89.0895,"lo2":-89.0444,"dy":0.0017,"dx":0.0017,"nx":28,"ny":28,"refTime":"2025-08-26T03:00:00:Z","depth":0,"parameterNumber":3,"parameterNumberName":"V-component_of_WINDS"},"data":[0,0,0,0,0,0,0,0,0,0,0,0,0,0,0,0,0,0,0,0,0,0,0,0,0,0,0,0,0,0,0,0,0,0,0,0,0,0,0,0,0,0,0,0,0,0,0,0,0,0,0,0,0,0,0,0,0,0,-3.6363,-3.6363,0,-3.6403,-3.6403,-3.6404,-3.6379,-3.6377,-3.6376,-3.6375,-3.6413,-3.6415,-3.6417,0,0,0,0,0,0,0,0,0,0,0,0,0,-3.6261,-3.6263,-3.6363,-3.6363,-3.6364,-3.6403,-3.6403,-3.6404,-3.6379,-3.6377,-3.6376,-3.6375,-3.6412,-3.6415,-3.6417,0,0,0,0,0,0,0,0,0,0,0,0,0,-3.6303,-3.6263,-3.6363,-3.6356,-3.6356,-3.6403,-3.6403,-3.6404,-3.6379,-3.6377,-3.6375,-3.6374,-3.6412,-3.6415,-3.6418,-3.6472,0,0,-3.6427,-3.6429,0,0,0,0,0,0,0,0,-3.6301,-3.6307,-3.6357,-3.6357,-3.6357,-3.6384,-3.6381,-3.6427,-3.6379,-3.637,-3.6375,-3.6373,-3.6405,-3.6408,-3.642,-3.6474,-3.6476,-3.6428,-3.643,-3.6431,-3.6432,0,0,0,0,0,0,0,-3.6298,-3.6305,-3.6379,-3.6357,-3.6357,-3.635,-3.6354,-3.639,-3.6397,-3.6371,-3.6369,-3.6374,-3.6404,-3.6417,-3.642,-3.6476,-3.6428,-3.643,-3.6432,-3.6434,-3.6575,-3.6577,0,0,0,0,0,0,-3.6296,-3.6303,-3.6377,-3.638,-3.6324,-3.6353,-3.6358,-3.6377,-3.6396,-3.6398,-3.6376,-3.6373,-3.6412,-3.6417,-3.6421,-3.6485,-3.6431,-3.6434,-3.6436,-3.6573,-3.6576,-3.6578,0,0,0,0,0,0,-3.6294,-3.6303,-3.6376,-3.6341,-3.635,-3.6357,-3.6378,-3.6379,-3.6391,-3.64,-3.6401,-3.6387,-3.6411,-3.6417,-3.646,-3.6486,-3.6435,-3.6438,-3.6571,-3.6574,-3.6577,-3.6613,0,0,0,0,0,0,-3.6291,-3.6302,-3.6324,-3.6342,-3.6352,-3.6415,-3.638,-3.6381,-3.6397,-3.6393,-3.6411,-3.6412,-3.641,-3.6455,-3.6463,-3.6489,-3.6441,-3.6569,-3.6572,-3.6576,-3.661,-3.6617,-3.6623,0,0,0,0,0,-3.6288,-3.6333,-3.6326,-3.6335,-3.6379,-3.6416,-3.6422,-3.6419,-3.6399,-3.642,-3.6426,-3.6412,-3.6482,-3.646,-3.6468,-3.6496,-3.6567,-3.6571,-3.6575,-3.6607,-3.6616,-3.6623,0,0,0,0,0,0,-3.6318,-3.6335,-3.6327,-3.638,-3.6397,-3.6412,-3.6439,-3.6429,-3.6451,-3.6447,-3.6442,-3.6446,-3.649,-3.6497,-3.6472,-3.6549,-3.6521,-3.6527,-3.6542,-3.6551,-3.6557,-3.6554,-3.6443,0,0,0,0,0,-3.6331,-3.6361,-3.6374,-3.6419,-3.6428,-3.6432,-3.6448,-3.6444,-3.6461,-3.6468,-3.6477,-3.6493,-3.6518,-3.6535,-3.6559,-3.6611,-3.6613,-3.6634,-3.6641,-3.6646,-3.6651,-3.6677,-3.6686,-3.6591,-3.6591,-3.6591,0,0,-3.6358,-3.6371,-3.639,-3.6425,-3.6438,-3.6467,-3.6438,-3.6471,-3.6492,-3.6472,-3.6513,-3.652,-3.6537,-3.6584,-3.6605,-3.6592,-3.6678,-3.6652,-3.6656,-3.6658,-3.6682,-3.6691,-3.6699,-3.6594,-3.6594,-3.6593,0,0,-3.6422,-3.6436,-3.6474,-3.6487,-3.6506,-3.6508,-3.6518,-3.6534,-3.6538,-3.6579,-3.6564,-3.6588,-3.6633,-3.6645,-3.6657,-3.6724,-3.6711,-3.6732,-3.6767,-3.6792,-3.6799,-3.6806,-3.6827,-3.6836,-3.6737,-3.6737,-3.6737,0,-3.6453,-3.6497,-3.6494,-3.6528,-3.6542,-3.6527,-3.6564,-3.6577,-3.6603,-3.6613,-3.6597,-3.6652,-3.6662,-3.6711,-3.6727,-3.6738,-3.6747,-3.6729,-3.6799,-3.6805,-3.6811,-3.6832,-3.684,-3.6739,-3.6739,-3.6739,-3.6739,0,-3.6533,-3.6564,-3.6592,-3.6618,-3.6636,-3.6671,-3.6672,-3.669,-3.6685,-3.6688,-3.6728,-3.674,-3.6766,-3.6777,-3.6772,-3.6824,-3.6815,-3.6799,-3.6771,-3.6822,-3.6842,-3.685,-3.6743,-3.6742,-3.6741,-3.6741,0,0,-3.6618,-3.664,-3.665,-3.6661,-3.6681,-3.6704,-3.6737,-3.6762,-3.6777,-3.6796,-3.6822,-3.6859,-3.6845,-3.6858,-3.6854,-3.6877,-3.6926,-3.6858,-3.6858,-3.6868,-3.6982,-3.6992,-3.7002,-3.6918,-3.6919,-3.6921,-3.698,0,-3.6681,-3.674,-3.6738,-3.6792,-3.6819,-3.6804,-3.6833,-3.6847,-3.6851,-3.6873,-3.6876,-3.6902,-3.6882,-3.689,-3.6911,-3.6915,-3.6948,-3.6911,-3.6941,-3.6942,-3.6935,-3.7012,-3.7024,-3.7079,-3.6987,-3.6989,-3.6989,0,-3.6763,-3.6784,-3.6841,-3.6855,-3.6866,-3.6892,-3.6914,-3.6936,-3.6951,-3.6952,-3.6967,-3.6959,-3.699,-3.6963,-3.7005,-3.698,-3.6992,-3.6996,-3.6998,-3.6999,-3.6968,-3.7014,-3.7097,-3.7104,-3.7002,-3.7001,-3.7,0,-3.6816,-3.6859,-3.6898,-3.6908,-3.6925,-3.6944,-3.6951,-3.6965,-3.698,-3.6998,-3.7007,-3.7029,-3.7041,-3.7058,-3.7055,-3.7035,-3.7098,-3.707,-3.7098,-3.7098,-3.7111,-3.711,-3.7195,-3.7121,-3.7121,-3.7121,-3.7121,0,-3.6887,-3.6922,-3.6922,-3.6946,-3.6984,-3.698,-3.7018,-3.7024,-3.7035,-3.7059,-3.7047,-3.7069,-3.7065,-3.7087,-3.7085,-3.7119,-3.7125,-3.7126,-3.7124,-3.7126,-3.7125,-3.7132,-3.7128,-3.7123,-3.7123,-3.7122,-3.7122,0,-3.6953,-3.6955,-3.6996,-3.7009,-3.7013,-3.704,-3.705,-3.7072,-3.7074,-3.7104,-3.7111,-3.7114,-3.7139,-3.7138,-3.7166,-3.7164,-3.7206,-3.7201,-3.7201,-3.72,-3.7227,-3.7223,-3.7318,-3.7329,-3.725,-3.7251,-3.7251,0,-3.6997,-3.7023,-3.7039,-3.7054,-3.7063,-3.7088,-3.7102,-3.7099,-3.7114,-3.7132,-3.7151,-3.7175,-3.7194,-3.7234,-3.7238,-3.7259,-3.7253,-3.7285,-3.7256,-3.7256,-3.7251,-3.7249,-3.7251,-3.729,-3.7291,-3.7292,-3.7292,0,-3.7074,-3.7073,-3.7095,-3.7117,-3.7135,-3.7152,-3.7167,-3.718,-3.7178,-3.7196,-3.7221,-3.7235,-3.7263,-3.7286,-3.7306,-3.7313,-3.7301,-3.7301,-3.7308,-3.7309,-3.7307,-3.7307,-3.7215,-3.7299,-3.7298,-3.7298,-3.7297,-3.7297,-3.7129,-3.7151,-3.7165,-3.7189,-3.72,-3.7214,-3.7235,-3.7239,-3.7261,-3.7284,-3.728,-3.7308,-3.732,-3.7345,-3.7354,-3.7374,-3.7363,-3.7374,-3.7376,-3.7379,-3.7381,-3.7305,-3.7378,-3.7378,-3.7378,-3.7378,-3.7377,0,-3.7204,-3.7212,-3.7234,-3.7256,-3.7274,-3.7263,-3.7279,-3.7295,-3.7319,-3.7332,-3.7351,-3.7378,-3.74,-3.7406,-3.7426,-3.7441,-3.7437,-3.7447,-3.7445,-3.7446,-3.7391,-3.7382,-3.745,-3.745,-3.745,-3.745,-3.745,-3.745,-3.7245,-3.7281,-3.7281,-3.7322,-3.7329,-3.7356,-3.7366,-3.7379,-3.7389,-3.742,-3.7438,-3.7442,-3.7451,-3.7472,-3.7491,-3.7492,-3.7499,-3.7511,-3.751,-3.7458,-3.745,-3.7443,-3.7435,-3.7513,-3.7513,-3.7563,-3.7563,-3.7564]}]]